Regional Weather Roundup
Issued by NWS Cleveland, OH

Home | Current Version | Previous Version | Text Only | Print | Product List | Glossary Off
Versions: 1 2 3 4 5 6 7 8 9 10 11 12 13 14 15 16 17 18 19 20 21 22 23 24 25 26 27 28 29 30 31 32 33 34 35 36 37 38 39 40 41 42 43 44 45 46 47 48 49 50

000
ASUS41 KCLE 220810
RWRCLE
OHIO REGIONAL WEATHER ROUNDUP
NATIONAL WEATHER SERVICE WILMINGTON, OH
300 AM EST SAT NOV 22 2014

NOTE: "FAIR" INDICATES FEW OR NO CLOUDS BELOW 12,000 FEET WITH NO
SIGNIFICANT WEATHER AND/OR OBSTRUCTIONS TO VISIBILITY.

OHZ001>008-015>018-024>027-034-035-043-044-220900-
   NORTHWEST OHIO

CITY           SKY/WX    TMP DP  RH WIND       PRES   REMARKS
DEFIANCE       CLOUDY    26  15  63 S7        30.26F WCI  18
FINDLAY        CLOUDY    26  15  63 S10       30.27F WCI  16
TOLEDO EXPRESS MOCLDY    21  11  65 S5        30.27F WCI  15
TOLEDO METCALF PTCLDY    23  12  62 S7        30.29F WCI  15
LIMA           CLOUDY    29  15  56 S14       30.27F WCI  18
$$

OHZ009>014-019>023-028>033-038-089-220900-
   NORTHEAST OHIO

CITY           SKY/WX    TMP DP  RH WIND       PRES   REMARKS
CLE-HOPKINS    PTCLDY    24   9  52 S10       30.36F WCI  14
CLE-LAKEFRONT  FAIR      23   9  55 SE17      30.32F WCI   9
CUY CO. ARPT   NOT AVBL
LORAIN-ELYRIA  PTCLDY    20  10  65 S13       30.33F WCI   7
ASHTABULA      PTCLDY    18   7  62 S12       30.36F WCI   5
AKRON-CANTON   PTCLDY    20   9  62 S8        30.34F WCI  10
WOOSTER        PTCLDY   N/A N/A N/A S3        30.34F
MANSFIELD      PTCLDY    24  10  55 S13       30.31S WCI  12
YOUNGSTOWN     PTCLDY    20   8  60 S9        30.36F WCI   9
$$

OHZ042-051>053-060>062-070>072-077>081-220900-
  SOUTHWEST OHIO

CITY           SKY/WX    TMP DP  RH WIND       PRES   REMARKS
CINC-COVINGTON CLOUDY    35  16  45 S7        30.32F WCI  29
CINC-LUNKEN    CLOUDY    29  19  66 SW5       30.37S WCI  24
HAMILTON       CLOUDY    31  16  54 VRB3      30.35F
DAYTON         CLOUDY    28  17  63 S5        30.32F WCI  23
WRIGHT-PAT AFB MOCLDY    27  13  57 VRB1      30.32F
DAYTON GENERAL CLOUDY    31  15  52 S12       30.32S WCI  22
WILMINGTON     MOCLDY    27  14  58 S6        30.33R WCI  20
$$

OHZ036-037-039>041-045>050-054>059-063>069-073>076-082>088-220900-
  CENTRAL AND SOUTHEAST OHIO

CITY           SKY/WX    TMP DP  RH WIND       PRES   REMARKS
COLUMBUS       PTCLDY    23   8  52 SE6       30.35F WCI  16
OSU AIRPORT    MOCLDY    24  10  55 SE5       30.34F WCI  18
BOLTON FIELD   CLOUDY    21  12  66 SE6       30.34F WCI  14
RICKENBACK AFB PTCLDY    14   9  80 CALM      30.35F
NEWARK         PTCLDY    10   6  84 CALM      30.37F
MARION         CLOUDY    24  10  55 S14       30.32F WCI  12
LANCASTER      PTCLDY    16  10  77 SE7       30.36F WCI   6
ZANESVILLE     PTCLDY    16   9  74 CALM      30.38F
NEW PHILLY     PTCLDY    14  10  84 SE3       30.39F
$$


USA.gov is the U.S. government's official web portal to all federal, state and local government web resources and services.